Actual water levels and discharges of Vltava river

Vraňany

Date and time (UTC) H (cm) Q (m3/s)
16. 7. 2019 00:50 20 62
16. 7. 2019 00:00 10 53
15. 7. 2019 23:00 10 53
15. 7. 2019 22:00 11 54
15. 7. 2019 21:00 6 50
15. 7. 2019 20:00 4 48
15. 7. 2019 19:00 3 47
15. 7. 2019 18:00 1 46
15. 7. 2019 17:00 1 46
15. 7. 2019 16:00 8 51
15. 7. 2019 15:00 18 60
15. 7. 2019 14:00 26 67
15. 7. 2019 13:00 38 79
15. 7. 2019 12:00 31 72

H - vodni stav, Q - discharge

Praha-Chuchle

Date and time (UTC) H (cm) Q (m3/s)
16. 7. 2019 00:40 48 61
16. 7. 2019 00:00 48 61
15. 7. 2019 23:00 48 61
15. 7. 2019 22:00 46 54
15. 7. 2019 21:00 46 54
15. 7. 2019 20:00 46 54
15. 7. 2019 19:00 46 54
15. 7. 2019 18:00 46 54
15. 7. 2019 17:00 45 51
15. 7. 2019 16:00 45 51
15. 7. 2019 15:00 46 54
15. 7. 2019 14:00 45 51
15. 7. 2019 13:00 44 47
15. 7. 2019 12:00 47 58

H - vodni stav, Q - discharge
more information

VD Vrané nad Vltavou

Date and time (UTC) H (m n. m.) Q (m3/s)
16. 7. 2019 00:40 200 40
16. 7. 2019 00:00 200 40
15. 7. 2019 23:00 200 40
15. 7. 2019 22:00 200 40
15. 7. 2019 21:00 199 40
15. 7. 2019 20:00 199 40
15. 7. 2019 19:00 199 40
15. 7. 2019 18:00 199 40
15. 7. 2019 17:00 199 40
15. 7. 2019 16:00 199 40
15. 7. 2019 15:00 199 40
15. 7. 2019 14:00 199 40
15. 7. 2019 13:00 199 40
15. 7. 2019 12:00 200 40

H - water level, Q - outflow

VD Štěchovice

Date and time (UTC) H (m n. m.) Q (m3/s)
16. 7. 2019 00:40 217 0
16. 7. 2019 00:00 217 69
15. 7. 2019 23:00 217 59
15. 7. 2019 22:00 217 79
15. 7. 2019 21:00 217 79
15. 7. 2019 20:00 217 50
15. 7. 2019 19:00 217 22
15. 7. 2019 18:00 217 49
15. 7. 2019 17:00 217 21
15. 7. 2019 16:00 217 22
15. 7. 2019 15:00 217 22
15. 7. 2019 14:00 217 49
15. 7. 2019 13:00 217 5
15. 7. 2019 12:00 217 0

H - water level, Q - outflow

VD Slapy

Date and time (UTC) H (m n. m.) Q (m3/s)
16. 7. 2019 00:40 270 0
16. 7. 2019 00:00 270 0
15. 7. 2019 23:00 270 0
15. 7. 2019 22:00 270 99
15. 7. 2019 21:00 270 98
15. 7. 2019 20:00 270 96
15. 7. 2019 19:00 270 90
15. 7. 2019 18:00 270 0
15. 7. 2019 17:00 270 0
15. 7. 2019 16:00 270 0
15. 7. 2019 15:00 270 0
15. 7. 2019 14:00 270 0
15. 7. 2019 13:00 270 0
15. 7. 2019 12:00 270 0

H - water level, Q - outflow

VD Kamýk

Date and time (UTC) H (m n. m.) Q (m3/s)
16. 7. 2019 00:40 282 -
16. 7. 2019 00:00 282 -
15. 7. 2019 23:00 282 -
15. 7. 2019 22:00 282 -
15. 7. 2019 21:00 282 -
15. 7. 2019 20:00 282 -
15. 7. 2019 19:00 283 -
15. 7. 2019 18:00 283 -
15. 7. 2019 17:00 283 -
15. 7. 2019 16:00 283 -
15. 7. 2019 15:00 283 -
15. 7. 2019 14:00 283 -
15. 7. 2019 13:00 283 -
15. 7. 2019 12:00 283 -

H - water level, Q - outflow

VD Orlík

Date and time (UTC) H (m n. m.) Q (m3/s)
16. 7. 2019 00:40 348 0
16. 7. 2019 00:00 348 0
15. 7. 2019 23:00 348 0
15. 7. 2019 22:00 348 0
15. 7. 2019 21:00 348 0
15. 7. 2019 20:00 348 0
15. 7. 2019 19:00 348 0
15. 7. 2019 18:00 348 0
15. 7. 2019 17:00 348 0
15. 7. 2019 16:00 348 0
15. 7. 2019 15:00 348 0
15. 7. 2019 14:00 348 0
15. 7. 2019 13:00 348 0
15. 7. 2019 12:00 348 0

H - water level, Q - outflow

VD Kořensko

Date and time (UTC) H (m n. m.) Q (m3/s)
16. 7. 2019 00:40 352 16
16. 7. 2019 00:00 352 16
15. 7. 2019 23:00 352 16
15. 7. 2019 22:00 353 16
15. 7. 2019 21:00 353 16
15. 7. 2019 20:00 353 16
15. 7. 2019 19:00 353 16
15. 7. 2019 18:00 353 16
15. 7. 2019 17:00 353 16
15. 7. 2019 16:00 353 16
15. 7. 2019 15:00 353 16
15. 7. 2019 14:00 353 0
15. 7. 2019 13:00 352 0
15. 7. 2019 12:00 352 0

H - water level, Q - outflow

VD Hněvkovice I - přehrada

Date and time (UTC) H (m n. m.) Q (m3/s)
- - -

H - water level, Q - outflow

České Budějovice

Date and time (UTC) H (cm) Q (m3/s)
16. 7. 2019 00:40 102 19
16. 7. 2019 00:00 102 20
15. 7. 2019 23:00 103 20
15. 7. 2019 22:00 102 21
15. 7. 2019 21:00 103 21
15. 7. 2019 20:00 101 21
15. 7. 2019 19:00 103 19
15. 7. 2019 18:00 103 22
15. 7. 2019 17:00 101 22
15. 7. 2019 16:00 102 21
15. 7. 2019 15:00 103 20
15. 7. 2019 14:00 103 20
15. 7. 2019 13:00 104 20
15. 7. 2019 12:00 103 20

H - vodni stav, Q - discharge
more information
Source data
Labe Basin Vltava Basin ČHMÚ